Location: Kielce
(50.8833°N, 20.6167°E)
Time: 16:52:30
(UTC+02:00)

Vanguard 2 Rocket - Visible Passes

Search period start: 19 April 2021 00:00
Search period end: 29 April 2021 00:00
Orbit: 553 x 3326 km, 32.9° (Epoch: 18 April)

Date Brightness Start Highest point End Pass type
(mag) Time Alt. Az. Time Alt. Az. Time Alt. Az.
19 Apr 10.1 20:05:07 10° W 20:16:53 22° SW 20:25:55 10° S visible
21 Apr 10.4 20:19:53 10° WSW 20:29:10 17° SW 20:36:50 10° SSW visible
23 Apr 10.7 20:37:17 10° WSW 20:41:16 11° SW 20:44:58 10° SW visible
